Simultaneous Nadir Overpasses (SNOs) Predictions

Prediction of SNOs between METOP-B and NOAA-19 Satellite Orbit:

Table of predicted SNOs for the next 14.0 days since TLE Epoch: 12/26/2020
Index Date (METOP-B) Time (METOP-B) Lat,Lon (METOP-B) SZA (METOP-B ) Date (NOAA-19) Time (NOAA-19) Lat,Lon (NOAA-19) SZA (NOAA-19 ) Distance(km) Time Diff (sec)
1 12/26/2020 19:05:58 80.32, -80.64 104.49 12/26/2020 19:04:50 80.32, -80.58 104.48 1.11 68
2 12/26/2020 19:56:39 -80.31, 86.57 75.53 12/26/2020 19:55:49 -80.32, 86.69 75.53 2.67 50
3 12/26/2020 20:47:20 80.31,-106.09 104.47 12/26/2020 20:46:50 80.31,-105.92 104.48 3.23 30
4 12/26/2020 21:38:00 -80.33, 61.43 75.51 12/26/2020 21:37:49 -80.31, 61.34 75.53 2.24 11
5 12/26/2020 22:28:42 80.30,-131.55 104.45 12/26/2020 22:28:51 80.32,-131.60 104.47 2.56 9
6 12/26/2020 23:19:22 -80.32, 35.97 75.53 12/26/2020 23:19:49 -80.31, 35.99 75.53 1.59 27
7 12/27/2020 00:10:04 80.29,-157.01 104.43 12/27/2020 00:10:51 80.32,-156.94 104.47 2.78 47
8 12/27/2020 01:00:44 -80.31, 10.52 75.55 12/27/2020 01:01:49 -80.30, 10.64 75.53 2.81 65
9 01/06/2021 21:10:09 -80.34, 68.54 76.51 01/06/2021 21:08:54 -80.33, 68.68 76.52 2.78 75
10 01/06/2021 22:00:50 80.33,-124.25 103.48 01/06/2021 21:59:58 80.34,-124.13 103.48 2.19 52
11 01/06/2021 22:51:31 -80.33, 43.08 76.53 01/06/2021 22:50:55 -80.34, 43.00 76.54 2.12 36
12 01/06/2021 23:42:11 80.35,-149.39 103.50 01/06/2021 23:41:58 80.33,-149.48 103.47 2.84 13
13 01/07/2021 00:32:53 -80.32, 17.62 76.56 01/07/2021 00:32:55 -80.34, 17.65 76.54 1.60 2
14 01/07/2021 01:23:33 80.34,-174.85 103.47 01/07/2021 01:23:58 80.32,-174.83 103.46 2.15 25
15 01/07/2021 02:14:15 -80.31, -7.83 76.58 01/07/2021 02:14:55 -80.33, -7.71 76.55 2.94 40
16 01/07/2021 03:04:54 80.33, 159.69 103.44 01/07/2021 03:05:57 80.31, 159.83 103.45 3.17 63



Historial Predications of SNOs between METOP-B and NOAA-19
